Location: Prague
(50.0830°N, 14.4670°E)
Time: 09:00:56
(UTC+02:00)

RS-15 - Pass Details

Date: 05 April 2023
Orbit: 1885 x 2159 km, 64.8° (Epoch: 29 May)

Event Time Altitude Azimuth Distance (km) Brightness Sun altitude
Rises 21:47:13 0° 305° (NW) 5,677 12.1 -19.4°
Reaches altitude 10° 21:50:59 10° 311° (NW) 4,656 11.2 -19.9°
Maximum altitude 22:02:44 49° 25° (NNE) 2,542 8.6 -21.3°
Enters shadow 22:11:25 19° 93° (E) 3,807 9.1 -22.4°
